Year,Month,Day,Hour,Minute,Value (Times are PST for temperature in C)
2011,08,16,00,00,12.60
2011,08,16,00,01,12.60
2011,08,16,00,02,12.60
2011,08,16,00,03,12.60
2011,08,16,00,04,12.60
2011,08,16,00,05,12.60
2011,08,16,00,06,12.60
2011,08,16,00,07,12.70
2011,08,16,00,08,12.70
2011,08,16,00,09,12.70
2011,08,16,00,10,12.80
2011,08,16,00,11,12.80
2011,08,16,00,12,12.80
2011,08,16,00,13,12.80
2011,08,16,00,14,12.80
2011,08,16,00,15,12.80
2011,08,16,00,16,12.80
2011,08,16,00,17,12.70
2011,08,16,00,18,12.70
2011,08,16,00,19,12.70
2011,08,16,00,20,12.70
2011,08,16,00,21,12.70
2011,08,16,00,22,12.70
2011,08,16,00,23,12.70
2011,08,16,00,24,12.70
2011,08,16,00,25,12.70
2011,08,16,00,26,12.70
2011,08,16,00,27,12.60
2011,08,16,00,28,12.60
2011,08,16,00,29,12.60
2011,08,16,00,30,12.60
2011,08,16,00,31,12.60
2011,08,16,00,32,12.60
2011,08,16,00,33,12.60
2011,08,16,00,34,12.60
2011,08,16,00,35,12.60
2011,08,16,00,36,12.60
2011,08,16,00,37,12.70
2011,08,16,00,38,12.70
2011,08,16,00,39,12.80
2011,08,16,00,40,12.80
2011,08,16,00,41,12.90
2011,08,16,00,42,12.90
2011,08,16,00,43,12.90
2011,08,16,00,44,12.90
2011,08,16,00,45,13.00
2011,08,16,00,46,13.00
2011,08,16,00,47,13.00
2011,08,16,00,48,13.00
2011,08,16,00,49,13.00
2011,08,16,00,50,13.00
2011,08,16,00,51,12.90
2011,08,16,00,52,12.90
2011,08,16,00,53,12.90
2011,08,16,00,54,13.00
2011,08,16,00,55,13.00
2011,08,16,00,56,13.00
2011,08,16,00,57,13.00
2011,08,16,00,58,13.10
2011,08,16,00,59,13.10
2011,08,16,01,00,13.10
2011,08,16,01,01,13.10
2011,08,16,01,02,13.10
2011,08,16,01,03,13.10
2011,08,16,01,04,13.10
2011,08,16,01,05,13.10
2011,08,16,01,06,13.20
2011,08,16,01,07,13.20
2011,08,16,01,08,13.20
2011,08,16,01,09,13.30
2011,08,16,01,10,13.30
2011,08,16,01,11,13.30
2011,08,16,01,12,13.30
2011,08,16,01,13,13.30
2011,08,16,01,14,13.30
2011,08,16,01,15,13.30
2011,08,16,01,16,13.30
2011,08,16,01,17,13.30
2011,08,16,01,18,13.30
2011,08,16,01,19,13.30
2011,08,16,01,20,13.30
2011,08,16,01,21,13.30
2011,08,16,01,22,13.40
2011,08,16,01,23,13.40
2011,08,16,01,24,13.40
2011,08,16,01,25,13.50
2011,08,16,01,26,13.50
2011,08,16,01,27,13.60
2011,08,16,01,28,13.60
2011,08,16,01,29,13.60
2011,08,16,01,30,13.60
2011,08,16,01,31,13.70
2011,08,16,01,32,13.70
2011,08,16,01,33,13.70
2011,08,16,01,34,13.70
2011,08,16,01,35,13.70
2011,08,16,01,36,13.70
2011,08,16,01,37,13.70
2011,08,16,01,38,13.70
2011,08,16,01,39,13.70
2011,08,16,01,40,13.70
2011,08,16,01,41,13.70
2011,08,16,01,42,13.70
2011,08,16,01,43,13.60
2011,08,16,01,44,13.60
2011,08,16,01,45,13.60
2011,08,16,01,46,13.60
2011,08,16,01,47,13.60
2011,08,16,01,48,13.60
2011,08,16,01,49,13.60
2011,08,16,01,50,13.60
2011,08,16,01,51,13.60
2011,08,16,01,52,13.50
2011,08,16,01,53,13.50
2011,08,16,01,54,13.50
2011,08,16,01,55,13.40
2011,08,16,01,56,13.40
2011,08,16,01,57,13.40
2011,08,16,01,58,13.40
2011,08,16,01,59,13.40
2011,08,16,02,00,13.40
2011,08,16,02,01,13.30
2011,08,16,02,02,13.30
2011,08,16,02,03,13.30
2011,08,16,02,04,13.30
2011,08,16,02,05,13.30
2011,08,16,02,06,13.30
2011,08,16,02,07,13.30
2011,08,16,02,08,13.30
2011,08,16,02,09,13.30
2011,08,16,02,10,13.30
2011,08,16,02,11,13.30
2011,08,16,02,12,13.30
2011,08,16,02,13,13.30
2011,08,16,02,14,13.30
2011,08,16,02,15,13.30
2011,08,16,02,16,13.30
2011,08,16,02,17,13.30
2011,08,16,02,18,13.30
2011,08,16,02,19,13.30
2011,08,16,02,20,13.30
2011,08,16,02,21,13.30
2011,08,16,02,22,13.30
2011,08,16,02,23,13.30
2011,08,16,02,24,13.40
2011,08,16,02,25,13.40
2011,08,16,02,26,13.40
2011,08,16,02,27,13.40
2011,08,16,02,28,13.40
2011,08,16,02,29,13.40
2011,08,16,02,30,13.40
2011,08,16,02,31,13.40
2011,08,16,02,32,13.40
2011,08,16,02,33,13.40
2011,08,16,02,34,13.40
2011,08,16,02,35,13.50
2011,08,16,02,36,13.50
2011,08,16,02,37,13.50
2011,08,16,02,38,13.50
2011,08,16,02,39,13.50
2011,08,16,02,40,13.50
2011,08,16,02,41,13.50
2011,08,16,02,42,13.60
2011,08,16,02,43,13.60
2011,08,16,02,44,13.60
2011,08,16,02,45,13.60
2011,08,16,02,46,13.60
2011,08,16,02,47,13.60
2011,08,16,02,48,13.60
2011,08,16,02,49,13.70
2011,08,16,02,50,13.70
2011,08,16,02,51,13.70
2011,08,16,02,52,13.70
2011,08,16,02,53,13.70
2011,08,16,02,54,13.70
2011,08,16,02,55,13.70
2011,08,16,02,56,13.70
2011,08,16,02,57,13.70
2011,08,16,02,58,13.70
2011,08,16,02,59,13.70
2011,08,16,03,00,13.60
2011,08,16,03,01,13.60
2011,08,16,03,02,13.60
2011,08,16,03,03,13.60
2011,08,16,03,04,13.60
2011,08,16,03,05,13.60
2011,08,16,03,06,13.60
2011,08,16,03,07,13.60
2011,08,16,03,08,13.50
2011,08,16,03,09,13.50
2011,08,16,03,10,13.50
2011,08,16,03,11,13.40
2011,08,16,03,12,13.40
2011,08,16,03,13,13.40
2011,08,16,03,14,13.40
2011,08,16,03,15,13.40
2011,08,16,03,16,13.30
2011,08,16,03,17,13.30
2011,08,16,03,18,13.30
2011,08,16,03,19,13.30
2011,08,16,03,20,13.30
2011,08,16,03,21,13.30
2011,08,16,03,22,13.30
2011,08,16,03,23,13.30
2011,08,16,03,24,13.30
2011,08,16,03,25,13.30
2011,08,16,03,26,13.30
2011,08,16,03,27,13.30
2011,08,16,03,28,13.20
2011,08,16,03,29,13.20
2011,08,16,03,30,13.20
2011,08,16,03,31,13.20
2011,08,16,03,32,13.20
2011,08,16,03,33,13.20
2011,08,16,03,34,13.20
2011,08,16,03,35,13.20
2011,08,16,03,36,13.10
2011,08,16,03,37,13.10
2011,08,16,03,38,13.10
2011,08,16,03,39,13.10
2011,08,16,03,40,13.10
2011,08,16,03,41,13.10
2011,08,16,03,42,13.10
2011,08,16,03,43,13.10
2011,08,16,03,44,13.10
2011,08,16,03,45,13.10
2011,08,16,03,46,13.10
2011,08,16,03,47,13.00
2011,08,16,03,48,13.00
2011,08,16,03,49,13.00
2011,08,16,03,50,13.00
2011,08,16,03,51,12.90
2011,08,16,03,52,12.90
2011,08,16,03,53,12.90
2011,08,16,03,54,12.90
2011,08,16,03,55,12.90
2011,08,16,03,56,12.90
2011,08,16,03,57,12.90
2011,08,16,03,58,12.90
2011,08,16,03,59,12.80
2011,08,16,04,00,12.80
2011,08,16,04,01,12.80
2011,08,16,04,02,12.80
2011,08,16,04,03,12.80
2011,08,16,04,04,12.80
2011,08,16,04,05,12.80
2011,08,16,04,06,12.70
2011,08,16,04,07,12.70
2011,08,16,04,08,12.70
2011,08,16,04,09,12.70
2011,08,16,04,10,12.70
2011,08,16,04,11,12.70
2011,08,16,04,12,12.70
2011,08,16,04,13,12.60
2011,08,16,04,14,12.60
2011,08,16,04,15,12.60
2011,08,16,04,16,12.60
2011,08,16,04,17,12.60
2011,08,16,04,18,12.60
2011,08,16,04,19,12.60
2011,08,16,04,20,12.60
2011,08,16,04,21,12.60
2011,08,16,04,22,12.60
2011,08,16,04,23,12.60
2011,08,16,04,24,12.50
2011,08,16,04,25,12.50
2011,08,16,04,26,12.50
2011,08,16,04,27,12.50
2011,08,16,04,28,12.40
2011,08,16,04,29,12.40
2011,08,16,04,30,12.40
2011,08,16,04,31,12.40
2011,08,16,04,32,12.40
2011,08,16,04,33,12.40
2011,08,16,04,34,12.30
2011,08,16,04,35,12.30
2011,08,16,04,36,12.30
2011,08,16,04,37,12.30
2011,08,16,04,38,12.30
2011,08,16,04,39,12.30
2011,08,16,04,40,12.30
2011,08,16,04,41,12.30
2011,08,16,04,42,12.30
2011,08,16,04,43,12.30
2011,08,16,04,44,12.30
2011,08,16,04,45,12.30
2011,08,16,04,46,12.40
2011,08,16,04,47,12.40
2011,08,16,04,48,12.30
2011,08,16,04,49,12.30
2011,08,16,04,50,12.30
2011,08,16,04,51,12.30
2011,08,16,04,52,12.30
2011,08,16,04,53,12.30
2011,08,16,04,54,12.30
2011,08,16,04,55,12.30
2011,08,16,04,56,12.30
2011,08,16,04,57,12.30
2011,08,16,04,58,12.30
2011,08,16,04,59,12.30
2011,08,16,05,00,12.30
2011,08,16,05,01,12.30
2011,08,16,05,02,12.30
2011,08,16,05,03,12.20
2011,08,16,05,04,12.20
2011,08,16,05,05,12.20
2011,08,16,05,06,12.20
2011,08,16,05,07,12.20
2011,08,16,05,08,12.20
2011,08,16,05,09,12.20
2011,08,16,05,10,12.10
2011,08,16,05,11,12.10
2011,08,16,05,12,12.10
2011,08,16,05,13,12.10
2011,08,16,05,14,12.10
2011,08,16,05,15,12.10
2011,08,16,05,16,12.10
2011,08,16,05,17,12.00
2011,08,16,05,18,12.00
2011,08,16,05,19,12.00
2011,08,16,05,20,12.00
2011,08,16,05,21,12.00
2011,08,16,05,22,12.00
2011,08,16,05,23,11.90
2011,08,16,05,24,11.90
2011,08,16,05,25,11.90
2011,08,16,05,26,11.90
2011,08,16,05,27,11.90
2011,08,16,05,28,11.90
2011,08,16,05,29,11.90
2011,08,16,05,30,11.90
2011,08,16,05,31,11.80
2011,08,16,05,32,11.80
2011,08,16,05,33,11.80
2011,08,16,05,34,11.80
2011,08,16,05,35,11.80
2011,08,16,05,36,11.80
2011,08,16,05,37,11.80
2011,08,16,05,38,11.80
2011,08,16,05,39,11.80
2011,08,16,05,40,11.80
2011,08,16,05,41,11.80
2011,08,16,05,42,11.80
2011,08,16,05,43,11.80
2011,08,16,05,44,11.80
2011,08,16,05,45,11.80
2011,08,16,05,46,11.80
2011,08,16,05,47,11.80
2011,08,16,05,48,11.80
2011,08,16,05,49,11.80
2011,08,16,05,50,11.80
2011,08,16,05,51,11.70
2011,08,16,05,52,11.70
2011,08,16,05,53,11.70
2011,08,16,05,54,11.70
2011,08,16,05,55,11.70
2011,08,16,05,56,11.70
2011,08,16,05,57,11.70
2011,08,16,05,58,11.70
2011,08,16,05,59,11.70
2011,08,16,06,00,11.70
2011,08,16,06,01,11.70
2011,08,16,06,02,11.70
2011,08,16,06,03,11.60
2011,08,16,06,04,11.60
2011,08,16,06,05,11.60
2011,08,16,06,06,11.60
2011,08,16,06,07,11.60
2011,08,16,06,08,11.70
2011,08,16,06,09,11.70
2011,08,16,06,10,11.70
2011,08,16,06,11,11.70
2011,08,16,06,12,11.70
2011,08,16,06,13,11.70
2011,08,16,06,14,11.70
2011,08,16,06,15,11.70
2011,08,16,06,16,11.70
2011,08,16,06,17,11.80
2011,08,16,06,18,11.80
2011,08,16,06,19,11.80
2011,08,16,06,20,11.80
2011,08,16,06,21,11.80
2011,08,16,06,22,11.80
2011,08,16,06,23,11.80
2011,08,16,06,24,11.80
2011,08,16,06,25,11.80
2011,08,16,06,26,11.80
2011,08,16,06,27,11.80
2011,08,16,06,28,11.80
2011,08,16,06,29,11.80
2011,08,16,06,30,11.80
2011,08,16,06,31,11.80
2011,08,16,06,32,11.80
2011,08,16,06,33,11.90
2011,08,16,06,34,11.90
2011,08,16,06,35,11.90
2011,08,16,06,36,11.90
2011,08,16,06,37,11.90
2011,08,16,06,38,11.90
2011,08,16,06,39,11.90
2011,08,16,06,40,12.00
2011,08,16,06,41,12.00
2011,08,16,06,42,12.10
2011,08,16,06,43,12.10
2011,08,16,06,44,12.10
2011,08,16,06,45,12.20
2011,08,16,06,46,12.20
2011,08,16,06,47,12.20
2011,08,16,06,48,12.20
2011,08,16,06,49,12.20
2011,08,16,06,50,12.30
2011,08,16,06,51,12.30
2011,08,16,06,52,12.30
2011,08,16,06,53,12.30
2011,08,16,06,54,12.30
2011,08,16,06,55,12.30
2011,08,16,06,56,12.30
2011,08,16,06,57,12.30
2011,08,16,06,58,12.40
2011,08,16,06,59,12.40
2011,08,16,07,00,12.40
2011,08,16,07,01,12.40
2011,08,16,07,02,12.50
2011,08,16,07,03,12.50
2011,08,16,07,04,12.60
2011,08,16,07,05,12.60
2011,08,16,07,06,12.60
2011,08,16,07,07,12.60
2011,08,16,07,08,12.60
2011,08,16,07,09,12.70
2011,08,16,07,10,12.70
2011,08,16,07,11,12.70
2011,08,16,07,12,12.70
2011,08,16,07,13,12.70
2011,08,16,07,14,12.70
2011,08,16,07,15,12.80
2011,08,16,07,16,12.80
2011,08,16,07,17,12.80
2011,08,16,07,18,12.80
2011,08,16,07,19,12.80
2011,08,16,07,20,12.80
2011,08,16,07,21,12.80
2011,08,16,07,22,12.80
2011,08,16,07,23,12.80
2011,08,16,07,24,12.90
2011,08,16,07,25,12.90
2011,08,16,07,26,12.90
2011,08,16,07,27,13.00
2011,08,16,07,28,13.00
2011,08,16,07,29,13.10
2011,08,16,07,30,13.10
2011,08,16,07,31,13.20
2011,08,16,07,32,13.20
2011,08,16,07,33,13.20
2011,08,16,07,34,13.30
2011,08,16,07,35,13.30
2011,08,16,07,36,13.30
2011,08,16,07,37,13.40
2011,08,16,07,38,13.40
2011,08,16,07,39,13.50
2011,08,16,07,40,13.50
2011,08,16,07,41,13.60
2011,08,16,07,42,13.60
2011,08,16,07,43,13.60
2011,08,16,07,44,13.70
2011,08,16,07,45,13.70
2011,08,16,07,46,13.70
2011,08,16,07,47,13.80
2011,08,16,07,48,13.80
2011,08,16,07,49,13.80
2011,08,16,07,50,13.80
2011,08,16,07,51,13.90
2011,08,16,07,52,13.90
2011,08,16,07,53,13.90
2011,08,16,07,54,13.90
2011,08,16,07,55,13.90
2011,08,16,07,56,13.90
2011,08,16,07,57,13.90
2011,08,16,07,58,14.00
2011,08,16,07,59,14.00
2011,08,16,08,00,14.00
2011,08,16,08,01,14.10
2011,08,16,08,02,14.10
2011,08,16,08,03,14.10
2011,08,16,08,04,14.20
2011,08,16,08,05,14.20
2011,08,16,08,06,14.20
2011,08,16,08,07,14.30
2011,08,16,08,08,14.30
2011,08,16,08,09,14.30
2011,08,16,08,10,14.40
2011,08,16,08,11,14.40
2011,08,16,08,12,14.40
2011,08,16,08,13,14.50
2011,08,16,08,14,14.50
2011,08,16,08,15,14.60
2011,08,16,08,16,14.70
2011,08,16,08,17,14.80
2011,08,16,08,18,14.80
2011,08,16,08,19,14.90
2011,08,16,08,20,15.00
2011,08,16,08,21,15.00
2011,08,16,08,22,15.00
2011,08,16,08,23,15.00
2011,08,16,08,24,15.00
2011,08,16,08,25,15.10
2011,08,16,08,26,15.20
2011,08,16,08,27,15.20
2011,08,16,08,28,15.30
2011,08,16,08,29,15.40
2011,08,16,08,30,15.40
2011,08,16,08,31,15.50
2011,08,16,08,32,15.50
2011,08,16,08,33,15.60
2011,08,16,08,34,15.60
2011,08,16,08,35,15.60
2011,08,16,08,36,15.70
2011,08,16,08,37,15.70
2011,08,16,08,38,15.80
2011,08,16,08,39,15.80
2011,08,16,08,40,15.90
2011,08,16,08,41,15.90
2011,08,16,08,42,16.00
2011,08,16,08,43,16.10
2011,08,16,08,44,16.10
2011,08,16,08,45,16.20
2011,08,16,08,46,16.30
2011,08,16,08,47,16.40
2011,08,16,08,48,16.40
2011,08,16,08,49,16.50
2011,08,16,08,50,16.60
2011,08,16,08,51,16.60
2011,08,16,08,52,16.70
2011,08,16,08,53,16.70
2011,08,16,08,54,16.80
2011,08,16,08,55,16.80
2011,08,16,08,56,16.80
2011,08,16,08,57,16.80
2011,08,16,08,58,16.80
2011,08,16,08,59,16.80
2011,08,16,09,00,16.80
2011,08,16,09,01,16.80
2011,08,16,09,02,16.80
2011,08,16,09,03,16.80
2011,08,16,09,04,16.80
2011,08,16,09,05,16.80
2011,08,16,09,06,16.80
2011,08,16,09,07,16.80
2011,08,16,09,08,16.80
2011,08,16,09,09,16.80
2011,08,16,09,10,16.80
2011,08,16,09,11,16.80
2011,08,16,09,12,16.90
2011,08,16,09,13,16.90
2011,08,16,09,14,16.90
2011,08,16,09,15,17.00
2011,08,16,09,16,17.10
2011,08,16,09,17,17.10
2011,08,16,09,18,17.10
2011,08,16,09,19,17.10
2011,08,16,09,20,17.10
2011,08,16,09,21,17.20
2011,08,16,09,22,17.20
2011,08,16,09,23,17.20
2011,08,16,09,24,17.10
2011,08,16,09,25,17.10
2011,08,16,09,26,17.10
2011,08,16,09,27,17.00
2011,08,16,09,28,17.10
2011,08,16,09,29,17.10
2011,08,16,09,30,17.10
2011,08,16,09,31,17.00
2011,08,16,09,32,17.00
2011,08,16,09,33,17.00
2011,08,16,09,34,17.00
2011,08,16,09,35,16.90
2011,08,16,09,36,17.00
2011,08,16,09,37,17.00
2011,08,16,09,38,17.00
2011,08,16,09,39,16.90
2011,08,16,09,40,16.90
2011,08,16,09,41,17.00
2011,08,16,09,42,17.00
2011,08,16,09,43,17.10
2011,08,16,09,44,17.20
2011,08,16,09,45,17.20
2011,08,16,09,46,17.20
2011,08,16,09,47,17.30
2011,08,16,09,48,17.30
2011,08,16,09,49,17.40
2011,08,16,09,50,17.50
2011,08,16,09,51,17.50
2011,08,16,09,52,17.60
2011,08,16,09,53,17.60
2011,08,16,09,54,17.70
2011,08,16,09,55,17.70
2011,08,16,09,56,17.80
2011,08,16,09,57,17.90
2011,08,16,09,58,17.90
2011,08,16,09,59,18.00
2011,08,16,10,00,18.00
2011,08,16,10,01,18.00
2011,08,16,10,02,18.00
2011,08,16,10,03,17.90
2011,08,16,10,04,17.90
2011,08,16,10,05,17.80
2011,08,16,10,06,17.70
2011,08,16,10,07,17.50
2011,08,16,10,08,17.50
2011,08,16,10,09,17.40
2011,08,16,10,10,17.50
2011,08,16,10,11,17.50
2011,08,16,10,12,17.60
2011,08,16,10,13,17.70
2011,08,16,10,14,17.70
2011,08,16,10,15,17.80
2011,08,16,10,16,17.90
2011,08,16,10,17,17.90
2011,08,16,10,18,17.90
2011,08,16,10,19,17.80
2011,08,16,10,20,17.80
2011,08,16,10,21,17.70
2011,08,16,10,22,17.70
2011,08,16,10,23,17.80
2011,08,16,10,24,17.80
2011,08,16,10,25,17.90
2011,08,16,10,26,18.00
2011,08,16,10,27,18.00
2011,08,16,10,28,18.00
2011,08,16,10,29,17.90
2011,08,16,10,30,17.90
2011,08,16,10,31,17.90
2011,08,16,10,32,17.90
2011,08,16,10,33,17.90
2011,08,16,10,34,18.00
2011,08,16,10,35,18.10
2011,08,16,10,36,18.10
2011,08,16,10,37,18.20
2011,08,16,10,38,18.20
2011,08,16,10,39,18.20
2011,08,16,10,40,18.30
2011,08,16,10,41,18.40
2011,08,16,10,42,18.40
2011,08,16,10,43,18.50
2011,08,16,10,44,18.60
2011,08,16,10,45,18.80
2011,08,16,10,46,18.80
2011,08,16,10,47,18.90
2011,08,16,10,48,18.90
2011,08,16,10,49,19.00
2011,08,16,10,50,19.10
2011,08,16,10,51,19.00
2011,08,16,10,52,18.80
2011,08,16,10,53,18.80
2011,08,16,10,54,18.70
2011,08,16,10,55,18.60
2011,08,16,10,56,18.50
2011,08,16,10,57,18.50
2011,08,16,10,58,18.50
2011,08,16,10,59,18.60
2011,08,16,11,00,18.70
2011,08,16,11,01,18.80
2011,08,16,11,02,18.90
2011,08,16,11,03,19.00
2011,08,16,11,04,19.00
2011,08,16,11,05,19.10
2011,08,16,11,06,19.10
2011,08,16,11,07,19.10
2011,08,16,11,08,19.20
2011,08,16,11,09,19.20
2011,08,16,11,10,19.20
2011,08,16,11,11,19.30
2011,08,16,11,12,19.30
2011,08,16,11,13,19.30
2011,08,16,11,14,19.20
2011,08,16,11,15,19.20
2011,08,16,11,16,19.10
2011,08,16,11,17,19.10
2011,08,16,11,18,19.00
2011,08,16,11,19,18.90
2011,08,16,11,20,19.00
2011,08,16,11,21,18.90
2011,08,16,11,22,18.90
2011,08,16,11,23,18.80
2011,08,16,11,24,18.80
2011,08,16,11,25,18.80
2011,08,16,11,26,18.90
2011,08,16,11,27,18.90
2011,08,16,11,28,18.90
2011,08,16,11,29,19.00
2011,08,16,11,30,19.10
2011,08,16,11,31,19.20
2011,08,16,11,32,19.40
2011,08,16,11,33,19.50
2011,08,16,11,34,19.60
2011,08,16,11,35,19.70
2011,08,16,11,36,19.70
2011,08,16,11,37,19.80
2011,08,16,11,38,19.90
2011,08,16,11,39,19.90
2011,08,16,11,40,20.00
2011,08,16,11,41,20.10
2011,08,16,11,42,20.10
2011,08,16,11,43,20.10
2011,08,16,11,44,20.10
2011,08,16,11,45,20.20
2011,08,16,11,46,20.20
2011,08,16,11,47,20.30
2011,08,16,11,48,20.30
2011,08,16,11,49,20.30
2011,08,16,11,50,20.40
2011,08,16,11,51,20.40
2011,08,16,11,52,20.40
2011,08,16,11,53,20.40
2011,08,16,11,54,20.30
2011,08,16,11,55,20.20
2011,08,16,11,56,20.10
2011,08,16,11,57,20.00
2011,08,16,11,58,19.80
2011,08,16,11,59,19.80
2011,08,16,12,00,19.70
2011,08,16,12,01,19.70
2011,08,16,12,02,19.70
2011,08,16,12,03,19.60
2011,08,16,12,04,19.60
2011,08,16,12,05,19.60
2011,08,16,12,06,19.70
2011,08,16,12,07,19.70
2011,08,16,12,08,19.70
2011,08,16,12,09,19.70
2011,08,16,12,10,19.70
2011,08,16,12,11,19.80
2011,08,16,12,12,19.80
2011,08,16,12,13,19.80
2011,08,16,12,14,19.80
2011,08,16,12,15,19.80
2011,08,16,12,16,19.80
2011,08,16,12,17,19.80
2011,08,16,12,18,19.80
2011,08,16,12,19,19.90
2011,08,16,12,20,19.90
2011,08,16,12,21,20.00
2011,08,16,12,22,20.00
2011,08,16,12,23,20.00
2011,08,16,12,24,20.00
2011,08,16,12,25,19.90
2011,08,16,12,26,19.90
2011,08,16,12,27,19.90
2011,08,16,12,28,20.00
2011,08,16,12,29,20.00
2011,08,16,12,30,20.00
2011,08,16,12,31,20.10
2011,08,16,12,32,20.10
2011,08,16,12,33,20.20
2011,08,16,12,34,20.20
2011,08,16,12,35,20.20
2011,08,16,12,36,20.10
2011,08,16,12,37,20.10
2011,08,16,12,38,20.10
2011,08,16,12,39,20.00
2011,08,16,12,40,20.00
2011,08,16,12,41,19.90
2011,08,16,12,42,19.90
2011,08,16,12,43,19.80
2011,08,16,12,44,19.70
2011,08,16,12,45,19.60
2011,08,16,12,46,19.60
2011,08,16,12,47,19.60
2011,08,16,12,48,19.60
2011,08,16,12,49,19.70
2011,08,16,12,50,19.70
2011,08,16,12,51,19.70
2011,08,16,12,52,19.70
2011,08,16,12,53,19.70
2011,08,16,12,54,19.80
2011,08,16,12,55,19.90
2011,08,16,12,56,20.00
2011,08,16,12,57,20.00
2011,08,16,12,58,20.10
2011,08,16,12,59,20.10
2011,08,16,13,00,20.10
2011,08,16,13,01,20.20
2011,08,16,13,02,20.20
2011,08,16,13,03,20.30
2011,08,16,13,04,20.30
2011,08,16,13,05,20.20
2011,08,16,13,06,20.20
2011,08,16,13,07,20.30
2011,08,16,13,08,20.40
2011,08,16,13,09,20.40
2011,08,16,13,10,20.50
2011,08,16,13,11,20.50
2011,08,16,13,12,20.30
2011,08,16,13,13,20.30
2011,08,16,13,14,20.30
2011,08,16,13,15,20.30
2011,08,16,13,16,20.30
2011,08,16,13,17,20.30
2011,08,16,13,18,20.30
2011,08,16,13,19,20.40
2011,08,16,13,20,20.30
2011,08,16,13,21,20.30
2011,08,16,13,22,20.40
2011,08,16,13,23,20.40
2011,08,16,13,24,20.40
2011,08,16,13,25,20.40
2011,08,16,13,26,20.40
2011,08,16,13,27,20.40
2011,08,16,13,28,20.30
2011,08,16,13,29,20.30
2011,08,16,13,30,20.30
2011,08,16,13,31,20.30
2011,08,16,13,32,20.40
2011,08,16,13,33,20.50
2011,08,16,13,34,20.60
2011,08,16,13,35,20.70
2011,08,16,13,36,20.80
2011,08,16,13,37,20.80
2011,08,16,13,38,20.90
2011,08,16,13,39,20.90
2011,08,16,13,40,20.90
2011,08,16,13,41,20.80
2011,08,16,13,42,20.80
2011,08,16,13,43,20.90
2011,08,16,13,44,20.90
2011,08,16,13,45,20.90
2011,08,16,13,46,20.90
2011,08,16,13,47,21.00
2011,08,16,13,48,21.00
2011,08,16,13,49,21.00
2011,08,16,13,50,21.00
2011,08,16,13,51,20.90
2011,08,16,13,52,20.80
2011,08,16,13,53,20.70
2011,08,16,13,54,20.60
2011,08,16,13,55,20.70
2011,08,16,13,56,20.70
2011,08,16,13,57,20.80
2011,08,16,13,58,20.80
2011,08,16,13,59,20.90
2011,08,16,14,00,21.00
2011,08,16,14,01,21.10
2011,08,16,14,02,21.20
2011,08,16,14,03,21.20
2011,08,16,14,04,21.10
2011,08,16,14,05,21.00
2011,08,16,14,06,20.90
2011,08,16,14,07,20.90
2011,08,16,14,08,20.90
2011,08,16,14,09,20.90
2011,08,16,14,10,20.90
2011,08,16,14,11,20.80
2011,08,16,14,12,20.80
2011,08,16,14,13,20.80
2011,08,16,14,14,20.80
2011,08,16,14,15,20.80
2011,08,16,14,16,20.80
2011,08,16,14,17,20.70
2011,08,16,14,18,20.70
2011,08,16,14,19,20.70
2011,08,16,14,20,20.70
2011,08,16,14,21,20.80
2011,08,16,14,22,20.90
2011,08,16,14,23,20.90
2011,08,16,14,24,20.90
2011,08,16,14,25,20.80
2011,08,16,14,26,20.70
2011,08,16,14,27,20.60
2011,08,16,14,28,20.50
2011,08,16,14,29,20.40
2011,08,16,14,30,20.30
2011,08,16,14,31,20.30
2011,08,16,14,32,20.30
2011,08,16,14,33,20.40
2011,08,16,14,34,20.50
2011,08,16,14,35,20.50
2011,08,16,14,36,20.60
2011,08,16,14,37,20.70
2011,08,16,14,38,20.80
2011,08,16,14,39,20.90
2011,08,16,14,40,21.00
2011,08,16,14,41,21.10
2011,08,16,14,42,21.20
2011,08,16,14,43,21.30
2011,08,16,14,44,21.30
2011,08,16,14,45,21.40
2011,08,16,14,46,21.50
2011,08,16,14,47,21.60
2011,08,16,14,48,21.70
2011,08,16,14,49,21.80
2011,08,16,14,50,21.80
2011,08,16,14,51,21.90
2011,08,16,14,52,22.10
2011,08,16,14,53,22.10
2011,08,16,14,54,22.20
2011,08,16,14,55,22.30
2011,08,16,14,56,22.30
2011,08,16,14,57,22.30
2011,08,16,14,58,22.30
2011,08,16,14,59,22.20
2011,08,16,15,00,22.20
2011,08,16,15,01,22.10
2011,08,16,15,02,22.10
2011,08,16,15,03,22.00
2011,08,16,15,04,22.00
2011,08,16,15,05,22.00
2011,08,16,15,06,21.90
2011,08,16,15,07,21.90
2011,08,16,15,08,21.90
2011,08,16,15,09,21.80
2011,08,16,15,10,21.80
2011,08,16,15,11,21.80
2011,08,16,15,12,21.80
2011,08,16,15,13,21.80
2011,08,16,15,14,21.80
2011,08,16,15,15,21.90
2011,08,16,15,16,22.00
2011,08,16,15,17,22.00
2011,08,16,15,18,22.00
2011,08,16,15,19,22.10
2011,08,16,15,20,22.10
2011,08,16,15,21,22.10
2011,08,16,15,22,22.20
2011,08,16,15,23,22.20
2011,08,16,15,24,22.20
2011,08,16,15,25,22.20
2011,08,16,15,26,22.20
2011,08,16,15,27,22.20
2011,08,16,15,28,22.20
2011,08,16,15,29,22.20
2011,08,16,15,30,22.20
2011,08,16,15,31,22.20
2011,08,16,15,32,22.10
2011,08,16,15,33,22.10
2011,08,16,15,34,22.10
2011,08,16,15,35,22.10
2011,08,16,15,36,22.10
2011,08,16,15,37,22.00
2011,08,16,15,38,21.90
2011,08,16,15,39,21.90
2011,08,16,15,40,21.90
2011,08,16,15,41,21.90
2011,08,16,15,42,21.90
2011,08,16,15,43,21.90
2011,08,16,15,44,21.90
2011,08,16,15,45,21.90
2011,08,16,15,46,21.90
2011,08,16,15,47,21.90
2011,08,16,15,48,21.90
2011,08,16,15,49,21.80
2011,08,16,15,50,21.80
2011,08,16,15,51,21.70
2011,08,16,15,52,21.70
2011,08,16,15,53,21.60
2011,08,16,15,54,21.50
2011,08,16,15,55,21.50
2011,08,16,15,56,21.50
2011,08,16,15,57,21.50
2011,08,16,15,58,21.40
2011,08,16,15,59,21.30
2011,08,16,16,00,21.20
2011,08,16,16,01,21.10
2011,08,16,16,02,21.10
2011,08,16,16,03,21.10
2011,08,16,16,04,21.10
2011,08,16,16,05,21.00
2011,08,16,16,06,21.00
2011,08,16,16,07,20.90
2011,08,16,16,08,20.90
2011,08,16,16,09,21.00
2011,08,16,16,10,21.10
2011,08,16,16,11,21.20
2011,08,16,16,12,21.20
2011,08,16,16,13,21.30
2011,08,16,16,14,21.30
2011,08,16,16,15,21.30
2011,08,16,16,16,21.30
2011,08,16,16,17,21.40
2011,08,16,16,18,21.30
2011,08,16,16,19,21.40
2011,08,16,16,20,21.40
2011,08,16,16,21,21.50
2011,08,16,16,22,21.50
2011,08,16,16,23,21.60
2011,08,16,16,24,21.70
2011,08,16,16,25,21.80
2011,08,16,16,26,21.80
2011,08,16,16,27,21.80
2011,08,16,16,28,21.80
2011,08,16,16,29,21.80
2011,08,16,16,30,21.70
2011,08,16,16,31,21.70
2011,08,16,16,32,21.70
2011,08,16,16,33,21.70
2011,08,16,16,34,21.70
2011,08,16,16,35,21.70
2011,08,16,16,36,21.70
2011,08,16,16,37,21.70
2011,08,16,16,38,21.70
2011,08,16,16,39,21.70
2011,08,16,16,40,21.70
2011,08,16,16,41,21.70
2011,08,16,16,42,21.70
2011,08,16,16,43,21.80
2011,08,16,16,44,21.80
2011,08,16,16,45,21.90
2011,08,16,16,46,21.90
2011,08,16,16,47,21.90
2011,08,16,16,48,21.90
2011,08,16,16,49,21.90
2011,08,16,16,50,21.90
2011,08,16,16,51,21.90
2011,08,16,16,52,21.90
2011,08,16,16,53,22.00
2011,08,16,16,54,22.00
2011,08,16,16,55,22.00
2011,08,16,16,56,21.90
2011,08,16,16,57,21.80
2011,08,16,16,58,21.80
2011,08,16,16,59,21.60
2011,08,16,17,00,21.50
2011,08,16,17,01,21.50
2011,08,16,17,02,21.40
2011,08,16,17,03,21.50
2011,08,16,17,04,21.50
2011,08,16,17,05,21.60
2011,08,16,17,06,21.60
2011,08,16,17,07,21.70
2011,08,16,17,08,21.70
2011,08,16,17,09,21.70
2011,08,16,17,10,21.70
2011,08,16,17,11,21.70
2011,08,16,17,12,21.70
2011,08,16,17,13,21.70
2011,08,16,17,14,21.70
2011,08,16,17,15,21.60
2011,08,16,17,16,21.60
2011,08,16,17,17,21.50
2011,08,16,17,18,21.40
2011,08,16,17,19,21.30